Location: Buenos Aires
(34.6076°S, 58.4371°W)
Time: 12:04:01
(UTC-03:00)

Envisat - Pass Details

Date: 28 June 2021
Orbit: 764 x 766 km, 98.2° (Epoch: 03 August)

Event Time Altitude Azimuth Distance (km) Brightness Sun altitude
Rises 06:30:20 0° 339° (NNW) 3,218 6.2 -18.2°
Reaches altitude 10° 06:33:08 10° 324° (NW) 2,302 5.3 -17.6°
Enters shadow 06:35:45 20° 294° (WNW) 1,736 4.4 -17.1°
